www.pogodaiklimat.ru

Погода и климат >> Архив погоды >> Россия >> Нижегородская область >> Нижний Новгород


АРХИВ ПОГОДЫ в Нижнем Новгороде

Время (UTC), дата Ветер
(напр.,м/с)
 
Видим.   Явления Облачность Т
(С)
Тd
(С)
f
(%)
Тe
(С)
Тes
(С)
Комфортность P
(гПа)
Po
(гПа)
Тmin
(С)
Tmax
(С)
R
(мм)
R24
(мм)
S
(см)
09 14.06 СЗ 2-6
{7}
10 км 10/9 1000 м
[Cb cap Ci fib]
+12.2 +3.2 54 +12 +13 очень
холодно
1014.9 996.1
12 14.06 С 2-5
{7}
10 км 8/5 1000 м
[Sc Ci fib]
+14.3 +3.8 49 +14 +19 холодно 1015.2 996.5
15 14.06 СЗ 2-5
{7}
10 км 3/3 1000 м
[Sc]
+14.8 -0.5 35 +15 +17 прохладно 1015.6 996.8 +15.0
18 14.06 С 1-2
{6}
10 км 10/0
[Ci]
+10.6 +4.6 66 +10 +10 холодно 1016.5 997.5
21 14.06 СВ 2-3
{4}
10 км 3/0
[Ac cast]
+9.2 +2.7 64 +8 +8 холодно 1018.0 998.9
00 15.06 В 2-3
{4}
10 км 1/1 1000 м
[Sc diur, vesp]
+7.3 +2.3 71 +5 +5 очень
холодно
1019.2 999.9
03 15.06 СВ 2-3
{4}
10 км 1/0
[Ci fib]
+10.3 +4.0 65 +9 +11 холодно 1020.1 1001.0 +6.3
06 15.06 С 2-4
{6}
10 км ясно +13.0 +0.6 43 +13 +23 холодно 1020.3 1001.4
09 15.06 С 2-7
{8}
10 км 3/3 1000 м
[Cu hum]
+15.0 +0.2 36 +15 +26 опасность
простуды
1019.8 1001.1
12 15.06 С 2-6
{8}
10 км 8/8 1000 м
[Sc]
+16.8 +2.9 39 +17 +19 прохладно 1019.2 1000.6
15 15.06 С 2-5
{7}
10 км 9/5 1000 м
[Cu med, cong Ac cast Ci fib]
+16.5 +3.6 42 +17 +18 по сезону 1018.9 1000.3 +17.3
18 15.06 штиль 0
{5}
10 км 4/0
[Ci sp]
+11.8 +5.1 63 +11 +11 холодно 1019.1 1000.1
21 15.06 штиль 0
{1}
10 км 8/8 1000 м
[Sc diur, vesp Ac cast]
+10.0 +6.4 78 +9 +9 холодно 1019.6 1000.5
00 16.06 З 1-1
{2}
10 км 8/8 1000 м
[Sc diur, vesp]
+9.0 +6.2 83 +8 +8 холодно 1020.1 1001.0
03 16.06 З 1-1
{2}
10 км 3/1 1000 м
[Sc diur, vesp Ci sp]
+11.1 +5.0 66 +11 +13 прохладно 1020.5 1001.5 +8.8
06 16.06 С 2-4
{5}
10 км ясно +17.5 +3.6 40 +18 +28 по сезону 1020.2 1001.6
09 16.06 С 3-7
{7}
10 км 3/0
[Ci fib]
+19.3 +3.4 35 +20 +32 по сезону 1019.7 1001.2
12 16.06 СЗ 2-5
{7}
10 км ясно +20.8 +4.3 34 +22 +33 комфорт 1019.2 1000.8
15 16.06 С 2-4
{6}
10 км ясно +20.5 +3.6 33 +22 +24 комфорт 1018.8 1000.4 +21.0
18 16.06 штиль 0
{5}
10 км ясно +16.7 +6.8 52 +17 +17 по сезону 1018.9 1000.3
21 16.06 штиль 0 10 км ясно +11.4 +7.4 76 +11 +11 прохладно 1019.5 1000.5
00 17.06 штиль 0
{2}
10 км ясно +9.4 +6.4 82 +9 +9 прохладно 1020.2 1001.0
03 17.06 СЗ 1-2
{2}
10 км 4/0
[Ci fib]
+14.5 +8.5 67 +15 +18 по сезону 1019.9 1001.1 +9.4
06 17.06 СЗ 1-3
{4}
10 км 6/0
[Ci fib]
+19.9 +9.4 51 +22 +33 комфорт 1018.8 1000.4
09 17.06 С 2-4
{6}
10 км 8/3 1000 м
[Cu hum Ci fib]
+24.2 +9.5 39 +25 +34 комфорт 1017.4 999.3
12 17.06 С 2-5
{8}
10 км 6/4 1000 м
[Cu hum Ci fib]
+25.1 +10.4 40 +26 +32 жарко 1016.3 998.2
15 17.06 С 1-5
{9}
10 км 3/1 1000 м
[Cu hum Ac trans Ci fib]
+24.5 +11.4 44 +26 +28 жарко 1015.4 997.4 +26.1
18 17.06 С 1-3
{5}
10 км 3/0
[Ac trans Ci fib]
+21.4 +11.5 53 +23 +23 комфорт 1015.7 997.4
21 17.06 З 1-2
{5}
10 км ясно +17.9 +12.3 70 +19 +19 тепло 1015.7 997.3
00 18.06 З 1-1
{2}
10 км 3/3 1000 м
[Cu hum]
+15.1 +11.8 81 +16 +16 тепло 1016.1 997.4
03 18.06 штиль 0
{2}
10 км 3/0
[Ac trans]
+16.9 +13.3 79 +17 +19 по сезону 1015.8 997.3 +14.4
06 18.06 З 1-3
{3}
10 км 3/0
[Ac trans Ci fib]
+22.2 +14.4 61 +25 +35 комфорт 1015.1 996.9
09 18.06 СЗ 1-4
{5}
10 км 3/3 1000 м
[Cu hum Ci fib]
+25.9 +11.3 40 +27 +40 жарко 1014.2 996.3
12 18.06 С 2-5
{8}
10 км 3/3 1000 м
[Sc diur, vesp]
+27.3 +9.2 32 +27 +35 жарко 1013.4 995.5
15 18.06 СЗ 1-4
{7}
10 км 1/0
[Ac trans]
+26.9 +9.7 34 +27 +30 жарко 1012.5 994.6 +27.8
18 18.06 штиль 0
{4}
10 км 3/0
[Ac cuf]
+21.7 +11.1 51 +24 +24 комфорт 1012.9 994.7
21 18.06 штиль 0
{2}
10 км 3/0
[Ac trans]
+17.0 +11.9 72 +17 +17 тепло 1013.2 994.7
00 19.06 З 1-2
{2}
10 км 9/0
[]
+17.5 +12.6 73 +19 +19 тепло 1013.1 994.6
03 19.06 СЗ 1-2
{3}
10 км 8/0
[Ac cast]
+18.8 +14.9 78 +21 +22 комфорт 1012.7 994.3 +16.1
06 19.06 З 1-3
{4}
10 км 3/0
[Ci fib]
+24.6 +14.8 54 +27 +39 жарко 1011.8 993.8
09 19.06 З 2-4
{5}
10 км 9/6 600 м
[Cb cap Ac trans Ci fib]
+25.6 +13.3 46 +28 +31 жарко 1010.4 992.5
12 19.06 З 2-5
{10}
10 км {гроза, ливн. осадки} 4/3 1000 м
[Cu med, cong Ci fib]
+26.8 +13.2 43 +29 +36 жарко 1008.7 990.9
15 19.06 З 1-4
{7}
10 км 9/3 1000 м
[Cu med, cong Ci fib]
+26.1 +10.6 38 +27 +29 жарко 1007.3 989.5 +27.5 1
18 19.06 ЮЗ 1-2
{7}
10 км 9/0
[Ac trans Ci fib]
+23.0 +14.2 58 +27 +27 душно 1007.2 989.2
21 19.06 З 1-4
{4}
10 км 4/0
[Ci fib]
+20.7 +14.0 65 +24 +24 комфорт 1006.0 987.8
00 20.06 З 1-3
{5}
10 км 10/0
[Ac As]
+18.6 +14.3 76 +20 +20 тепло 1004.4 986.2
03 20.06 З 1-4
{5}
10 км слабый ливневой дождь 10/10 600 м
[Cb cap]
+17.6 +14.9 84 +19 +19 тепло 1002.7 984.5 +17.6 0.2
06 20.06 СЗ 3-7
{15}
10 км в посл. час ливневой дождь 10/8 600 м
[Cb cap Ac As]
+16.9 +11.5 70 +17 +17 по сезону 1003.0 984.7 +16.9
09 20.06 СЗ 4-12
{14}
10 км {ливн. осадки} 8/8 600 м
[Cb cap]
+18.8 +8.9 53 +19 +21 по сезону 1003.5 985.3
12 20.06 З 4-10
{13}
10 км {ливн. осадки} 5/5 1000 м
[Cb cap]
+20.0 +4.0 35 +21 +24 комфорт 1003.9 985.7
15 20.06 СЗ 2-6
{15}
10 км в посл. час ливневой дождь 10/10 600 м
[Cb cap]
+14.2 +8.9 70 +14 +14 холодно 1005.8 987.2 +20.2 2
18 20.06 ЮЗ 1-3
{6}
10 км {ливн. осадки} 8/8 1000 м
[Cb cap]
+14.5 +8.4 67 +15 +15 прохладно 1005.1 986.6
21 20.06 З 2-4
{7}
10 км ясно +13.8 +6.8 63 +13 +13 прохладно 1005.6 987.1
00 21.06 З 2-4
{10}
10 км {ливн. осадки} ясно +11.7 +6.2 69 +11 +11 прохладно 1006.3 987.6
03 21.06 З 2-4
{7}
10 км ясно +12.9 +7.1 68 +12 +15 прохладно 1006.6 988.0 +11.6

 

Местоположение метеостанции Нижний Новгород (Нижегородская область, Россия): широта 56.27 долгота 44.00 высота над уровнем моря 157 м.

В архиве по умолчанию представлена погода в Нижнем Новгороде за последнюю неделю. Архивные данные за месяц целиком и за предыдущие месяцы, начиная с января 2011 года, Вы можете получить, выбрав интересующий диапазон дат из раскрывающегося списка и нажав кнопку "Ввод!".


*Определитесь, кто Вы:
робот инопланетянин человек

Внимание! Время в таблицах - всемирное. Для получения местного времени необходимо прибавить поправку, которая в Нижнем Новгороде равна 3 ч.

Смотрите также архив погоды в соседних городах и на ближайших метеорологических станциях:

Погода в Нижнем Новгороде аэропорт (Нижегородская область, Россия) (15 км)
Погода в Дальнем Константиново (Нижегородская область, Россия) (53 км)
Погода в Балахне (Нижегородская область, Россия) (54 км)
Погода в Волжской ГМО (Нижегородская область, Россия) (57 км)
Погода в Семенове (Нижегородская область, Россия) (60 км)
Погода в Павлово (Нижегородская область, Россия) (70 км)
Погода в Лысково (Нижегородская область, Россия) (70 км)
Погода в Арзамасе (Нижегородская область, Россия) (101 км)
Погода в Воскресенском (Нижегородская область, Россия) (106 км)
Погода в Вязниках (Владимирская область, Россия) (113 км)

Пояснения к столбцам:

Ветер - указаны скорость ветра в м/с - средняя за 10 мин, порывы в срок и между сроками (в фигурных скобках) и направление, откуда дует ветер: С - северный, СВ - северо-восточный, В - восточный, ЮВ - юго-восточный, Ю - южный, ЮЗ - юго-западный, З - западный, СЗ - северо-западный.
Видимость - горизонтальная дальность видимости в метрах или километрах. При видимости от 1 до 10 км при отсутствии осадков обычно наблюдается дымка, при ухудшении видимости до 1 км и менее - туман. В сухую погоду видимость может ухудшаться дымом, пылью или мглою.
Явления - указаны атмосферные явления, наблюдавшиеся в срок или в последний час перед сроком; фигурными скобками обозначены явления, наблюдавшиеся между сроками (за 1-3 часа до срока); квадратными скобками обозначены град или гололедные отложения с указанием их диаметра в мм.
Облачность - указаны через наклонную черту общая и нижняя облачность в баллах и высота нижней границы облаков в метрах; квадратными скобками обозначены формы облаков: Ci - перистые, Cs - перисто-слоистые, Cc - перисто-кучевые, Ac - высококучевые, As - высокослоистые, Sc - слоисто-кучевые, Ns - слоисто-дождевые, Cu - кучевые, Cb - кучево-дождевые. Подробнее классификацию облаков см. в Атласе облаков (PDF).
T - Температура воздуха - температура, измеренная на высоте 2 м над землей.
Td - Температура точки росы - температура, при понижении до которой содержащийся в воздухе водяной пар достигнет насыщения.
f - Относительная влажность воздуха - влажноcть воздуха, измеренная на высоте 2 м над землей.
Te - Эффективная температура - температура, которую ощущает одетый по сезону человек в тени. Характеристика душности погоды. При расчете учитывается влияние влажности воздуха и скорости ветра на теплоощущения человека.
Tes - Эффективная температура на солнце - температура, которую ощущает человек, с поправкой на солнечный нагрев. Характеристика знойности погоды. Зависит от высоты солнца над горизонтом, облачности и скорости ветра. Ночью, в пасмурную погоду, а также при ветре 12 м/с и более поправка равна нулю.
P - Атмосферное давление - приведенное к уровню моря атмосферное давление.
Po - Атмосферное давление - измеренное на уровне метеостанции атмосферное давление.
Tmin - Минимальная температура - минимум температуры воздуха на высоте 2 м над землей.
Tmax - Максимальная температура - максимум температуры воздуха на высоте 2 м над землей.
R - Количество осадков - Количество выпавших осадков за период времени, мм. При наведении курсора мыши на число - период времени, за который выпало указанное количество осадков.
R24 - Количество осадков - Количество выпавших осадков за 24 часа, мм.
S - Снежный покров - Высота снежного покрова, см. При наведении курсора мыши на число - состояние снежного покрова и степень покрытия местности в баллах.